Regional Weather Roundup
Issued by NWS

Home | Current Version | Previous Version | Text Only | Print | Product List | Glossary On
Versions: 1 2 3 4 5 6 7 8 9 10 11 12 13 14 15 16 17 18 19 20 21 22 23 24 25 26 27 28 29 30 31 32 33 34 35 36 37 38 39 40 41 42 43 44 45 46 47 48 49 50
000
ASUS44 KFWD 292001
RWRTX
NORTH TEXAS HOURLY WEATHER ROUNDUP
NATIONAL WEATHER SERVICE FORT WORTH TX
300 PM CDT FRI AUG 29 2014

NOTE: "FAIR" INDICATES FEW OR NO CLOUDS BELOW 12,000 FEET WITH NO
SIGNIFICANT WEATHER AND/OR OBSTRUCTIONS TO VISIBILITY.

TXZ118-119-292100-
DALLAS/FORT WORTH METROPLEX

CITY           SKY/WX    TMP DP  RH WIND       PRES   REMARKS
DFW AIRPORT    MOSUNNY   90  67  46 CALM      29.87F HX  93
DALLAS LOVE    PTSUNNY   91  67  44 CALM      29.86F HX  94
FTW MEACHAM    MOSUNNY   90  63  40 VRB5      29.87F HX  91
DAL-EXECUTIVE  MOSUNNY   92  66  42 VRB7      29.86F HX  94
FTW-ALLIANCE   MOSUNNY   89  64  43 SW9       29.87F HX  90
FTW-NAS-JRB    MOSUNNY   93  62  35 CALM      29.91F HX  93
FTW-SPINKS     MOSUNNY   90  64  43 CALM      29.88F HX  91
ARLINGTON      MOSUNNY   90  64  42 VRB3      29.87F HX  91
GRAND PRAIRIE  SUNNY     90  64  43 CALM      29.88F HX  91
MESQUITE       MOSUNNY   91  68  46 SE8       29.87F HX  95
LANCASTER      MOSUNNY   93  67  43 S9        29.87F HX  96
$$

TXZ091>094-102>105-117-120-121-131>134-292100-
NORTH CENTRAL TEXAS

CITY           SKY/WX    TMP DP  RH WIND       PRES   REMARKS
SHRMAN/DENISON MOSUNNY   89  66  46 W8        29.89F HX  92
GAINESVILLE    PTSUNNY   83  67  59 CALM      29.91F
BRIDGEPORT     SUNNY     85  63  47 CALM      29.91F
DECATUR        MOSUNNY   84  65  52 CALM      29.90F
DENTON         SUNNY     86  68  54 W6        29.88F
MCKINNEY       SUNNY     90  65  43 S8        29.87F HX  92
GREENVILLE     MOSUNNY   88  70  55 SW9       29.89F HX  92
ROCKWALL       PTSUNNY   89  72  55 S8        29.87F HX  96
TERRELL        PTSUNNY   89  72  56 S9        29.88F HX  96
WAXAHACHIE     MOSUNNY   90  65  43 S5        29.88F HX  91
CLEBURNE       SUNNY     91  68  46 S6        29.89F HX  95
$$

TXZ083>090-098>101-113>116-127>130-139>142-154-155-292100-
WESTERN NORTH TEXAS

CITY           SKY/WX    TMP DP  RH WIND       PRES   REMARKS
WICHITA FALLS  PTSUNNY   78  69  73 SW5       29.92F
WF-KICKAPOO    CLOUDY    77  69  74 W6        29.94F
VERNON         MOSUNNY   84  67  57 S12       29.93F
ABILENE        MOSUNNY   88  68  51 CALM      29.92F HX  91
BRECKENRIDGE   TSTM      74  69  82 N7G22     29.95R
MINERAL WELLS  SUNNY     87  67  51 CALM      29.88F HX  90
STEPHENVILLE   SUNNY     89  64  43 SW5       29.93F HX  90
COMANCHE         N/A     92  66  42 SE9       29.89F HX  94
BROWNWOOD      MOSUNNY   90  66  45 S7        29.88F HX  92
COLEMAN        PTSUNNY   89  66  46 S3        29.91F HX  91
BRADY          SUNNY     91  66  43 E9        29.89F HX  94
$$

TXZ143>147-156>162-174-175-292100-
CENTRAL TEXAS

CITY           SKY/WX    TMP DP  RH WIND       PRES   REMARKS
WACO           SUNNY     92  70  48 CALM      29.86F HX  97
WACO-MCGREGOR  SUNNY     93  70  46 S5        29.86F HX  99
HILLSBORO      MOSUNNY   91  65  42 SE3       29.87F HX  93
CORSICANA      MOSUNNY   91  70  49 SE10      29.88F HX  96
MEXIA          MOSUNNY   87  72  59 E9G17     29.87F HX  93
HEARNE         LGT RAIN  80  74  81 N13G21    29.86S
CAMERON        MOSUNNY   91  72  53 SE5       29.84F HX  98
TEMPLE         MOSUNNY   93  66  40 E7        29.86F HX  96
KILLEEN        PTSUNNY   93  68  43 VRB7      29.86F HX  97
KILLEEN-SKYLRK MOSUNNY   93  66  40 SE7       29.86F HX  96
FORT HOOD      MOSUNNY   96  67  38 CALM      29.86F HX 100
LAMPASAS       MOSUNNY   96  69  42 CALM      29.86F HX 102
$$

TXZ095>097-106>112-122>126-135>138-148>153-164>167-292100-
EAST TEXAS

CITY           SKY/WX    TMP DP  RH WIND       PRES   REMARKS
PARIS          PTSUNNY   84  70  61 S12G17    29.91F
SULPHUR SPRNGS MOSUNNY   85  71  63 S7        29.92F HX  91
MOUNT PLEASANT CLOUDY    88  71  56 SW6       29.90F HX  94
MINEOLA        MOSUNNY   88  73  62 S8        29.90F HX  96
TYLER          MOSUNNY   87  74  64 SE5       29.90F HX  95
LONGVIEW       PTSUNNY   91  67  44 S10       29.87F HX  94
MARSHALL       MOSUNNY   96  67  39 S9        29.90F HX 100
ATHENS         MOSUNNY   86  73  66 SE8       29.89S HX  93
PALESTINE      PTSUNNY   89  73  59 CALM      29.90S HX  96
JACKSONVILLE   MOSUNNY   89  70  52 SE7       29.91F HX  94
HENDERSON      MOSUNNY   94  64  36 S6        29.89F HX  96
NACOGDOCHES    MOSUNNY   91  70  49 SE9       29.89F HX  97
LUFKIN         PTSUNNY   92  72  51 SE13      29.89F HX  99
$$

SUPPLEMENTAL OBSERVATIONS (CENTRAL)

CITY           SKY/WX    TMP DP  RH WIND       PRES   REMARKS
$$

SUPPLEMENTAL OBSERVATIONS (WEST)

CITY           SKY/WX    TMP DP  RH WIND       PRES   REMARKS
$$

SUPPLEMENTAL OBSERVATIONS (EAST)

CITY           SKY/WX    TMP DP  RH WIND       PRES   REMARKS
$$

SUPPLEMENTAL OBSERVATIONS ARE A COLLECTION OF AUTOMATED INSTRUMENTS
THAT ARE MAINTAINED BY A VARIETY OF FEDERAL AND STATE AGENCIES.
CERTAIN ELEMENTS...SUCH AS HUMIDITY VALUES AND SUSTAINED WIND
SPEEDS...MAY BE APPROXIMATED.



USA.gov is the U.S. government's official web portal to all federal, state and local government web resources and services.